AirNav   Air Wisconsin pilot careers
 
 1606 users online  

1I5 Freehold Airport
Freehold, New York, USA

GOING TO FREEHOLD?


FAA INFORMATION EFFECTIVE 26 APRIL 2018

Location

FAA Identifier: 1I5
Lat/Long: 42-21-50.4000N / 074-03-54.1000W
42-21.840000N / 074-03.901667W
42.3640000 / -74.0650278
(estimated)
Elevation: 440 ft. / 134 m (estimated)
Variation: 14W (1985)
From city: 1 mile NW of FREEHOLD, NY
Time zone: UTC -4 (UTC -5 during Standard Time)
Zip code: 12431

Airport Operations

Airport use: Open to the public
Activation date: 07/1969
Control tower: no
ARTCC: BOSTON CENTER
FSS: BURLINGTON FLIGHT SERVICE STATION
NOTAMs facility: BTV (NOTAM-D service available)
Attendance: APR-DEC 0900-DUSK
Wind indicator: yes
Segmented circle: no

Airport Communications

CTAF: 122.85
WX AWOS-3 at 1B1 (16 nm E): 133.525 (518-828-2577)

Nearby radio navigation aids

VOR radial/distance  VOR name  Freq  Var
ALBr220/25.7ALBANY VORTAC115.3013W

 
NDB name  Hdg/Dist  Freq  Var  ID
PHILMONT307/16.627213WPFH .--. ..-. ....
HUNTER205/30.035614WHEU .... . ..-
GREAT BARRINGTON304/31.339514WGBR --. -... .-.
JOHNSTOWN177/39.952314WJJH .--- .--- ....

Airport Services

Parking: tiedowns
Airframe service: NONE
Powerplant service: NONE

Runway Information

Runway 12/30

Dimensions: 2275 x 22 ft. / 693 x 7 m
100 FT BY 2640 FT TURF RWY ADJACENT TO PAVED RWY (S EDGE) BEGINNING AT 735 FT FROM RWY 30 THLD.
Surface: asphalt, in poor condition
SURFACE BROKEN & SPALLING FOR ENTIRE LENGTH.
RUNWAY 12  RUNWAY 30
Latitude: 42-21.903982N42-21.777210N
Longitude: 074-04.139745W074-03.664357W
Elevation: 437.0 ft.421.0 ft.
Gradient: 0.7% UP
Traffic pattern: leftleft
Runway heading: 124 magnetic, 110 true304 magnetic, 290 true
Markings: nonenone
Obstructions: 10 ft. fence, 200 ft. from runway, 42 ft. left of centerline
10 FT HIGH FENCE APPROX. PARALLEL TO RWY, 42 FT LT., 50 - 700 FT FRM THSLD.
10 ft. brush, marked, 200 ft. from runway, 20 ft. left of centerline
+10 FT BRUSH, 0-200 FT FROM RUNWAY 30 THRESHOLD, 20 FT LEFT OF CENTERLINE

Airport Ownership and Management from official FAA records

Ownership: Privately-owned
Owner: NUTMEG SOARING ASSOCIATION, INC.
C/O BOB WARD, 125 SHORE DRIVE
NEW WINDSOR, NY 12553
Phone 845-496-3712
Manager: TOM MAY
580 OLD PLANK ROAD
GREENVILLE, NY 12083
Phone 518-966-8503

Airport Operational Statistics

Aircraft based on the field: 8
Gliders airplanes: 8
    
Aircraft operations: avg 46/week *
91% local general aviation
9% transient general aviation
* for 12-month period ending 25 May 2017

Additional Remarks

A30A-12 RGT TFC FOR GLIDERS RY 12 ONLY.
EXTENSIVE GLIDER ACTIVITY, ESPECIALLY ON WEEKENDS.
RY 12 ORCHARDS 100 FT LEFT & 112 FT RIGHT RY CNTRLN & 59 FT TREES IN APCH TO RY 288 FT FM THLD.
RGT TFC FOR GLIDERS RY 12 ONLY.
CONTACT AIRPORT MANAGER FOR FIELD CONDITIONS DEC 1 -APR 1; PH. 518-966-8503

Instrument Procedures

There are no published instrument procedures at 1I5.

Some nearby airports with instrument procedures:

4B0 - South Albany Airport (16 nm NE)
1B1 - Columbia County Airport (16 nm E)
20N - Kingston-Ulster Airport (23 nm S)
KALB - Albany International Airport (26 nm NE)
KSCH - Schenectady County Airport (30 nm N)
 
Loc | Ops | Rwys | IFR | FBO | Links
Com | Nav | Svcs | Stats | Notes

AirNav Hotels Sweepstakes
 
Area around 1I5 (Freehold Airport)
 
Road maps at: MapQuest Bing Google
 
Aerial photo
WARNING: Photo may not be current or correct
Aerial photo of 1I5 (Freehold Airport)
Photo courtesy of Adam Pass, www.birddogaerials.com
Photo taken 25-Feb-2009

Do you have a better or more recent aerial photo of Freehold Airport that you would like to share? If so, please send us your photo.

 
Sectional chart

 
Airport distance calculator
Flying to Freehold Airport? Find the distance to fly.

From to 1I5

Sunrise and sunset
Times for 22-May-2018
 Local
(UTC-4)
 Zulu
(UTC)
Morning civil twilight04:5608:56
Sunrise05:2909:29
Sunset20:1600:16
Evening civil twilight20:4900:49

Current date and time
Zulu (UTC)  22-May-2018 18:07:49
Local (UTC-4)  22-May-2018 14:07:49
 
METAR
KALB 
26nm NE 
221751Z 13005KT 7SM FEW011 SCT040 OVC060 16/13 A3007 RMK AO2 RAE49 SLP182 PRESENT WX VCSH P0002 60009 T01610133 10167 20144 58016
KSCH 
30nm N 
221745Z 11003KT 10SM RA OVC060 15/14 A3007
KPSF 
35nm E 
221754Z AUTO VRB03KT 9SM SCT010 BKN026 OVC060 17/14 A3009 RMK AO2 RAE50 SLP174 P0001 60005 T01670139 10183 20117 58016
KNY0 
40nm N 
221756Z AUTO 13005KT 5SM BKN005 BKN018 OVC044 13/13 A3007 RMK AO2 P0005
KAQW 
45nm NE 
221752Z AUTO 00000KT 10SM -RA FEW038 OVC060 18/12 A3009 RMK AO2 SLP189 P0000 60001 T01780117 10194 20122 58012
KPOU 
45nm S 
221753Z 25004KT 7SM -RA OVC075 18/15 A3010 RMK AO2 RAB1657 SLP189 P0002 60004 T01780150 10189 20150 55010
TAF
KALB 
26nm NE 
221721Z 2218/2318 17008KT 6SM -RA BR FEW012 OVC045 TEMPO 2218/2222 3SM RA BR BKN012 OVC045 FM222200 18006KT 5SM BR VCSH SCT008 OVC015 FM231400 30008KT P6SM SCT050
NOTAMs
Click for the latest NOTAMs
NOTAMs are issued by the DoD/FAA and will open in a separate window not controlled by AirNav.

 

 
 

Where to Eat: Catering, Restaurants, Food shops

  
 Business Name 
 
 Contact 
 
 Services / Description 
 
Distance
 
Comments
  
Freehold Country Restaurant and Pub 518-634-7454
[web site]
Catering, Internet access, Restrooms, Restaurant

More info about Freehold Country Restaurant and Pub
1 mile
free shuttle
 
   write
 

Would you like to see your business listed on this page?

 If your business provides an interesting product or service to pilots, flight crews, aircraft, or users of the Freehold Airport, you should consider listing it here.  To start the listing process, click on the button below
 
Add a business
 

Other Pages about Freehold Airport

Update a link
 
Copyright © AirNav, LLC. All rights reserved. Privacy Policy  Contact